GW6947 Weather Reports


time (UTC)temp
C
wind
direction
speed
KPH
gust
KPH
rain 1hr
cm
rain 24hr
cm
rain mn
cm
humidity
%
barometer
mb
20260509000417 19 269 0.0 0.0 0.00 0.00 0.00 38 1045.3
20260508235911 19 253 0.0 0.0 0.00 0.00 0.00 37 1045.3
20260508235409 19 240 0.0 0.0 0.00 0.00 0.00 37 1045.3
20260508234905 19 259 0.0 0.0 0.00 0.00 0.00 37 1045.1
20260508234402 19 260 0.0 0.0 0.00 0.00 0.00 35 1045.2
20260508233900 20 157 0.0 0.0 0.00 0.00 0.00 38 1045.5
20260508233359 20 214 0.0 0.0 0.00 0.00 0.00 37 1045.6
20260508232855 20 201 0.0 0.0 0.00 0.00 0.00 37 1045.5
20260508232352 20 260 0.0 0.0 0.00 0.00 0.00 34 1045.5
20260508231850 20 251 0.0 0.0 0.00 0.00 0.00 33 1045.7
20260508231346 20 280 0.0 0.0 0.00 0.00 0.00 35 1045.6
20260508230843 20 191 0.0 0.0 0.00 0.00 0.00 36 1045.6
20260508230339 20 202 0.0 0.0 0.00 0.00 0.00 36 1045.6
20260508225837 20 214 0.0 0.0 0.00 0.00 0.00 34 1045.3
20260508225334 20 204 0.0 0.0 0.00 0.00 0.00 33 1045.5
20260508224832 21 204 0.0 0.0 0.00 0.00 0.00 34 1045.4
20260508224329 21 280 0.0 0.0 0.00 0.00 0.00 34 1045.6
20260508223826 21 248 0.0 0.0 0.00 0.00 0.00 34 1045.4
20260508223323 21 228 0.0 0.0 0.00 0.00 0.00 34 1045.6
20260508222821 21 235 0.0 0.0 0.00 0.00 0.00 37 1045.4
20260508222318 21 227 0.0 0.0 0.00 0.00 0.00 33 1045.6
20260508221814 21 227 0.0 0.0 0.00 0.00 0.00 35 1045.4
20260508221310 21 240 0.0 0.0 0.00 0.00 0.00 35 1045.6
20260508220807 21 224 0.0 0.0 0.00 0.00 0.00 34 1045.5
20260508220303 21 263 0.0 0.0 0.00 0.00 0.00 32 1045.4
20260508215800 21 230 0.0 0.0 0.00 0.00 0.00 31 1045.2
20260508215256 21 250 0.0 0.0 0.00 0.00 0.00 33 1045.4
20260508214754 21 289 0.0 0.0 0.00 0.00 0.00 34 1045.4
20260508214251 21 273 0.0 0.0 0.00 0.00 0.00 32 1045.2
20260508213747 21 222 0.0 0.0 0.00 0.00 0.00 32 1045.0
20260508213244 21 198 0.0 0.0 0.00 0.00 0.00 32 1045.0
20260508212741 21 251 0.0 0.0 0.00 0.00 0.00 32 1044.8
20260508212237 21 281 0.0 0.0 0.00 0.00 0.00 32 1045.1
20260508211733 21 269 0.0 0.0 0.00 0.00 0.00 33 1045.4
20260508211229 21 213 0.0 0.0 0.00 0.00 0.00 35 1045.6
20260508210726 21 268 0.0 0.0 0.00 0.00 0.00 36 1045.6
20260508210223 21 211 0.0 0.0 0.00 0.00 0.00 34 1045.8
20260508205720 21 262 0.0 0.0 0.00 0.00 0.00 32 1045.9
20260508205216 21 285 0.0 0.0 0.00 0.00 0.00 36 1046.0
20260508204712 21 228 0.0 0.0 0.00 0.00 0.00 33 1046.0
20260508204209 21 194 0.0 0.0 0.00 0.00 0.00 37 1046.1
20260508203705 21 271 0.0 0.0 0.00 0.00 0.00 39 1046.0
20260508203201 21 276 0.0 0.0 0.00 0.00 0.00 35 1046.3
20260508202658 21 334 0.0 0.0 0.00 0.00 0.00 35 1046.4
20260508202155 21 268 0.0 0.0 0.00 0.00 0.00 36 1046.4
20260508201652 21 280 0.0 0.0 0.00 0.00 0.00 37 1046.8
20260508201149 21 232 0.0 0.0 0.00 0.00 0.00 40 1046.8
20260508200645 21 310 0.0 0.0 0.00 0.00 0.00 39 1046.8
20260508200141 21 267 0.0 0.0 0.00 0.00 0.00 34 1046.6
20260508195638 20 222 0.0 0.0 0.00 0.00 0.00 37 1046.4
20260508195134 20 288 0.0 0.0 0.00 0.00 0.00 36 1046.7
20260508194631 21 231 0.0 0.0 0.00 0.00 0.00 36 1046.6
20260508194128 21 230 0.0 0.0 0.00 0.00 0.00 36 1046.5
20260508193625 21 207 0.0 0.0 0.00 0.00 0.00 38 1046.7
20260508193122 21 236 0.0 0.0 0.00 0.00 0.00 36 1046.8
20260508192618 21 253 0.0 0.0 0.00 0.00 0.00 40 1046.8
20260508192115 20 254 0.0 0.0 0.00 0.00 0.00 39 1046.8
20260508191612 21 235 0.0 0.0 0.00 0.00 0.00 37 1046.8
20260508191109 21 224 0.0 0.0 0.00 0.00 0.00 36 1046.6
20260508190606 21 210 0.0 0.0 0.00 0.00 0.00 36 1047.0
20260508185600 20 222 0.0 0.0 0.00 0.00 0.00 39 1047.1
20260508185057 20 74 0.0 0.0 0.00 0.00 0.00 38 1047.4
20260508184554 20 211 0.0 0.0 0.00 0.00 0.00 37 1047.5
20260508184051 20 214 0.0 0.0 0.00 0.00 0.00 35 1047.1
20260508183547 20 214 0.0 0.0 0.00 0.00 0.00 41 1047.4
20260508183043 21 261 0.0 0.0 0.00 0.00 0.00 41 1047.7
20260508182540 21 198 0.0 0.0 0.00 0.00 0.00 36 1047.6
20260508182037 21 246 0.0 0.0 0.00 0.00 0.00 40 1047.5
20260508181532 20 194 0.0 0.0 0.00 0.00 0.00 45 1047.9
20260508181030 20 217 0.0 0.0 0.00 0.00 0.00 35 1047.9
20260508180526 20 264 0.0 0.0 0.00 0.00 0.00 38 1047.9
20260508180023 20 243 0.0 0.0 0.00 0.00 0.00 36 1048.1
20260508175519 20 207 0.0 0.0 0.00 0.00 0.00 39 1048.3
20260508175017 20 214 0.0 0.0 0.00 0.00 0.00 37 1048.5
20260508174514 20 217 0.0 0.0 0.00 0.00 0.00 40 1048.8
20260508174011 20 248 0.0 0.0 0.00 0.00 0.00 37 1048.8
20260508173508 20 218 0.0 0.0 0.00 0.00 0.00 39 1049.0
20260508173004 20 224 0.0 0.0 0.00 0.00 0.00 40 1048.8
20260508172501 20 257 0.0 0.0 0.00 0.00 0.00 43 1049.0
20260508171957 19 209 0.0 0.0 0.00 0.00 0.00 43 1049.2
20260508171454 20 294 0.0 0.0 0.00 0.00 0.00 37 1049.1
20260508170950 19 213 0.0 0.0 0.00 0.00 0.00 40 1049.4
20260508170448 19 222 0.0 0.0 0.00 0.00 0.00 39 1049.2
20260508165945 20 276 0.0 0.0 0.00 0.00 0.00 41 1049.3
20260508165443 19 131 0.0 0.0 0.00 0.00 0.00 38 1049.6
20260508164938 19 202 0.0 0.0 0.00 0.00 0.00 43 1049.7
20260508164436 19 288 0.0 0.0 0.00 0.00 0.00 41 1049.8
20260508163933 19 258 0.0 0.0 0.00 0.00 0.00 39 1050.0
20260508163431 19 277 0.0 0.0 0.00 0.00 0.00 37 1050.2
20260508162926 19 284 0.0 0.0 0.00 0.00 0.00 43 1050.0
20260508162424 19 312 0.0 0.0 0.00 0.00 0.00 42 1050.1
20260508161920 18 231 0.0 0.0 0.00 0.00 0.00 43 1050.3
20260508161418 18 268 0.0 0.0 0.00 0.00 0.00 49 1050.1
20260508160915 19 212 0.0 0.0 0.00 0.00 0.00 41 1050.3
20260508160414 18 171 0.0 0.0 0.00 0.00 0.00 42 1050.4
20260508155909 18 203 0.0 0.0 0.00 0.00 0.00 47 1050.4
20260508155407 18 264 0.0 0.0 0.00 0.00 0.00 42 1050.5
20260508154903 18 269 0.0 0.0 0.00 0.00 0.00 46 1050.5
20260508154401 18 257 0.0 0.0 0.00 0.00 0.00 43 1050.6
20260508153857 18 260 0.0 0.0 0.00 0.00 0.00 46 1050.6
20260508153355 18 180 0.0 0.0 0.00 0.00 0.00 39 1050.8
20260508152850 18 282 0.0 0.0 0.00 0.00 0.00 43 1050.8
20260508152347 18 231 0.0 0.0 0.00 0.00 0.00 47 1051.0
20260508151844 17 218 0.0 0.0 0.00 0.00 0.00 39 1050.8
20260508151341 17 182 0.0 0.0 0.00 0.00 0.00 43 1050.8
20260508150837 17 190 0.0 0.0 0.00 0.00 0.00 43 1050.8
20260508150334 17 301 0.0 0.0 0.00 0.00 0.00 40 1050.9
20260508145830 17 226 0.0 0.0 0.00 0.00 0.00 46 1050.8
20260508145326 17 196 0.0 0.0 0.00 0.00 0.00 47 1050.9
20260508144823 17 232 0.0 0.0 0.00 0.00 0.00 47 1050.8
20260508144321 17 222 0.0 0.0 0.00 0.00 0.00 46 1050.8
20260508143818 16 234 0.0 0.0 0.00 0.00 0.00 50 1050.9
20260508143315 17 249 0.0 0.0 0.00 0.00 0.00 49 1050.8
20260508142812 16 256 0.0 0.0 0.00 0.00 0.00 49 1050.8
20260508142309 16 282 0.0 0.0 0.00 0.00 0.00 47 1051.0
20260508141805 16 131 0.0 0.0 0.00 0.00 0.00 45 1051.1
20260508141302 16 294 0.0 0.0 0.00 0.00 0.00 48 1050.9
20260508140800 16 294 0.0 0.0 0.00 0.00 0.00 49 1050.8
20260508140257 15 271 0.0 0.0 0.00 0.00 0.00 50 1050.9
20260508135752 15 261 0.0 0.0 0.00 0.00 0.00 50 1051.1
20260508135249 15 237 0.0 0.0 0.00 0.00 0.00 52 1051.0
20260508134744 14 241 0.0 0.0 0.00 0.00 0.00 52 1050.9
20260508134242 14 235 0.0 0.0 0.00 0.00 0.00 53 1050.9
20260508133738 14 219 0.0 0.0 0.00 0.00 0.00 55 1051.1
20260508133236 13 243 0.0 0.0 0.00 0.00 0.00 60 1050.9
20260508132734 13 221 0.0 0.0 0.00 0.00 0.00 58 1051.1
20260508132231 13 239 0.0 0.0 0.00 0.00 0.00 61 1050.9
20260508131726 12 219 0.0 0.0 0.00 0.00 0.00 60 1051.1
20260508131223 12 236 0.0 0.0 0.00 0.00 0.00 61 1051.0
20260508130720 12 272 0.0 0.0 0.00 0.00 0.00 63 1050.9
20260508130217 11 235 0.0 0.0 0.00 0.00 0.00 67 1051.0
20260508125712 11 230 0.0 0.0 0.00 0.00 0.00 71 1051.1
20260508125209 10 273 0.0 0.0 0.00 0.00 0.00 72 1051.1
20260508124707 10 255 0.0 0.0 0.00 0.00 0.00 74 1051.1
20260508124204 10 264 0.0 0.0 0.00 0.00 0.00 78 1051.0
20260508123702 10 253 0.0 0.0 0.00 0.00 0.00 76 1051.0
20260508123200 9 248 0.0 0.0 0.00 0.00 0.00 81 1050.9
20260508122656 8 272 0.0 0.0 0.00 0.00 0.00 81 1050.9
20260508122153 8 269 0.0 0.0 0.00 0.00 0.00 82 1051.1
20260508121651 8 254 0.0 0.0 0.00 0.00 0.00 80 1050.9
20260508121149 7 223 0.0 0.0 0.00 0.00 0.00 84 1050.9
20260508120646 7 263 0.0 0.0 0.00 0.00 0.00 84 1050.9
20260508120144 7 265 0.0 0.0 0.00 0.00 0.00 83 1050.9
20260508115642 6 278 0.0 0.0 0.00 0.00 0.00 85 1051.0
20260508115138 6 260 0.0 0.0 0.00 0.00 0.00 89 1050.8
20260508114635 6 271 0.0 0.0 0.00 0.00 0.00 93 1050.7
20260508114131 6 22 0.0 0.0 0.00 0.00 0.00 96 1050.8
20260508113629 4 22 0.0 0.0 0.00 0.00 0.00 97 1050.9
20260508113127 3 22 0.0 0.0 0.00 0.00 0.00 96 1050.6
20260508112623 2 22 0.0 0.0 0.00 0.00 0.00 95 1050.4
20260508112120 2 22 0.0 0.0 0.00 0.00 0.00 95 1050.5
20260508111616 2 22 0.0 0.0 0.00 0.00 0.00 95 1050.3
20260508111114 2 22 0.0 0.0 0.00 0.00 0.00 95 1050.4
20260508110612 2 22 0.0 0.0 0.00 0.00 0.00 95 1050.4
20260508110108 2 22 0.0 0.0 0.00 0.00 0.00 95 1050.5
20260508105607 2 22 0.0 0.0 0.00 0.00 0.00 95 1050.3
20260508105105 2 22 0.0 0.0 0.00 0.00 0.00 94 1050.3
20260508104603 2 22 0.0 0.0 0.00 0.00 0.00 94 1050.2
20260508104059 2 22 0.0 0.0 0.00 0.00 0.00 94 1050.3
20260508103556 2 22 0.0 0.0 0.00 0.00 0.00 94 1050.1
20260508103053 2 22 0.0 0.0 0.00 0.00 0.00 95 1050.1
20260508102551 2 23 0.0 0.0 0.00 0.00 0.00 95 1050.0
20260508102048 2 27 0.0 0.0 0.00 0.00 0.00 94 1050.0
20260508101546 2 27 0.0 0.0 0.00 0.00 0.00 94 1050.0
20260508101043 2 27 0.0 0.0 0.00 0.00 0.00 94 1050.0
20260508100541 2 27 0.0 0.0 0.00 0.00 0.00 94 1050.1
20260508100037 2 28 0.0 0.0 0.00 0.00 0.00 94 1049.9
20260508095535 2 28 0.0 0.0 0.00 0.00 0.00 94 1050.0
20260508095031 2 28 0.0 0.0 0.00 0.00 0.00 94 1049.9
20260508094529 2 34 0.0 0.0 0.00 0.00 0.00 94 1050.1
20260508094025 2 35 0.0 0.0 0.00 0.00 0.00 94 1049.9
20260508093522 2 35 0.0 0.0 0.00 0.00 0.00 95 1050.0
20260508093020 2 34 0.0 0.0 0.00 0.00 0.00 95 1050.1
20260508092517 2 34 0.0 0.0 0.00 0.00 0.00 95 1050.1
20260508092016 2 28 0.0 0.0 0.00 0.00 0.00 95 1050.1
20260508091513 2 50 0.0 0.0 0.00 0.00 0.00 94 1050.1
20260508091009 2 48 0.0 0.0 0.00 0.00 0.00 95 1050.1
20260508090508 2 48 0.0 0.0 0.00 0.00 0.00 94 1050.1
20260508090004 2 42 0.0 0.0 0.00 0.00 0.00 95 1050.0
20260508085500 2 32 0.0 0.0 0.00 0.00 0.00 95 1050.2
20260508084957 2 80 0.0 0.0 0.00 0.00 0.00 95 1050.3
20260508084454 2 101 0.0 0.0 0.00 0.00 0.00 95 1050.2
20260508083952 2 101 0.0 0.0 0.00 0.00 0.00 95 1050.2
20260508083449 2 101 0.0 0.0 0.00 0.00 0.00 95 1050.1
20260508082944 2 101 0.0 0.0 0.00 0.00 0.00 95 1050.4
20260508082441 2 101 0.0 0.0 0.00 0.00 0.00 95 1050.2
20260508081939 2 101 0.0 0.0 0.00 0.00 0.00 95 1050.3
20260508081435 2 101 0.0 0.0 0.00 0.00 0.00 95 1050.2
20260508080932 2 101 0.0 0.0 0.00 0.00 0.00 95 1050.0
20260508080430 2 102 0.0 0.0 0.00 0.00 0.00 95 1050.1
20260508075926 2 102 0.0 0.0 0.00 0.00 0.00 95 1050.1
20260508075424 2 102 0.0 0.0 0.00 0.00 0.00 95 1050.1
20260508074921 2 101 0.0 0.0 0.00 0.00 0.00 95 1049.9
20260508074418 2 103 0.0 0.0 0.00 0.00 0.00 95 1050.2
20260508073915 2 103 0.0 0.0 0.00 0.00 0.00 95 1050.3
20260508073413 2 103 0.0 0.0 0.00 0.00 0.00 95 1050.1
20260508072910 2 103 0.0 0.0 0.00 0.00 0.00 95 1049.8
20260508072406 2 103 0.0 0.0 0.00 0.00 0.00 95 1050.1
20260508071903 2 103 0.0 0.0 0.00 0.00 0.00 95 1050.2
20260508071401 2 103 0.0 0.0 0.00 0.00 0.00 95 1050.2
20260508070859 2 103 0.0 0.0 0.00 0.00 0.00 94 1050.2
20260508070356 2 103 0.0 0.0 0.00 0.00 0.00 94 1050.1
20260508065854 3 103 0.0 0.0 0.00 0.00 0.00 95 1050.2
20260508065352 2 103 0.0 0.0 0.00 0.00 0.00 95 1050.2
20260508064850 2 103 0.0 0.0 0.00 0.00 0.00 94 1050.2
20260508064347 2 103 0.0 0.0 0.00 0.00 0.00 94 1050.1
20260508063845 3 103 0.0 0.0 0.00 0.00 0.00 94 1050.4
20260508063342 3 103 0.0 0.0 0.00 0.00 0.00 94 1050.3
20260508062839 3 103 0.0 0.0 0.00 0.00 0.00 94 1050.2
20260508062337 2 103 0.0 0.0 0.00 0.00 0.00 93 1050.3
20260508061833 2 103 0.0 0.0 0.00 0.00 0.00 93 1050.1
20260508061331 2 103 0.0 0.0 0.00 0.00 0.00 93 1050.2
20260508060827 2 103 0.0 0.0 0.00 0.00 0.00 92 1050.3
20260508060325 3 103 0.0 0.0 0.00 0.00 0.00 92 1050.2
20260508055820 3 8 0.0 0.0 0.00 0.00 0.00 93 1050.3
20260508055318 3 8 0.0 0.0 0.00 0.00 0.00 93 1050.6
20260508054814 3 58 0.0 0.0 0.00 0.00 0.00 93 1050.4
20260508054312 3 58 0.0 0.0 0.00 0.00 0.00 93 1050.6
20260508053808 3 58 0.0 0.0 0.00 0.00 0.00 93 1050.5
20260508053306 3 58 0.0 0.0 0.00 0.00 0.00 93 1050.6
20260508052803 3 56 0.0 0.0 0.00 0.00 0.00 92 1050.4
20260508052300 3 56 0.0 0.0 0.00 0.00 0.00 92 1050.6
20260508051756 3 56 0.0 0.0 0.00 0.00 0.00 92 1050.5
20260508051251 3 56 0.0 0.0 0.00 0.00 0.00 92 1050.5
20260508050748 3 56 0.0 0.0 0.00 0.00 0.00 91 1050.6
20260508050246 3 62 0.0 0.0 0.00 0.00 0.00 91 1050.5
20260508045741 3 62 0.0 0.0 0.00 0.00 0.00 90 1050.3
20260508045239 4 45 0.0 0.0 0.00 0.00 0.00 89 1050.2
20260508044736 4 40 0.0 0.0 0.00 0.00 0.00 89 1050.3
20260508044233 4 40 0.0 0.0 0.00 0.00 0.00 89 1050.4
20260508043729 4 40 0.0 0.0 0.00 0.00 0.00 88 1050.4
20260508043227 4 41 0.0 0.0 0.00 0.00 0.00 88 1050.5
20260508042723 5 42 0.0 0.0 0.00 0.00 0.00 87 1050.4
20260508042221 5 42 0.0 0.0 0.00 0.00 0.00 87 1050.5
20260508041717 5 42 0.0 0.0 0.00 0.00 0.00 86 1050.3
20260508041214 5 42 0.0 0.0 0.00 0.00 0.00 83 1050.4
20260508040710 5 48 0.0 0.0 0.00 0.00 0.00 83 1050.2
20260508040208 5 36 0.0 0.0 0.00 0.00 0.00 84 1050.1
20260508035705 5 31 0.0 0.0 0.00 0.00 0.00 87 1050.3
20260508035202 5 33 0.0 0.0 0.00 0.00 0.00 85 1050.3
20260508034659 5 36 0.0 0.0 0.00 0.00 0.00 87 1050.2
20260508034156 5 55 0.0 0.0 0.00 0.00 0.00 87 1050.5
20260508033653 5 56 0.0 0.0 0.00 0.00 0.00 87 1050.4
20260508033152 5 56 0.0 0.0 0.00 0.00 0.00 84 1050.3
20260508032648 6 55 0.0 0.0 0.00 0.00 0.00 81 1050.5
20260508032145 6 56 0.0 0.0 0.00 0.00 0.00 80 1050.4
20260508031642 6 55 0.0 0.0 0.00 0.00 0.00 79 1050.5
20260508031138 6 55 0.0 0.0 0.00 0.00 0.00 78 1050.6
20260508030635 6 55 0.0 0.0 0.00 0.00 0.00 78 1050.5
20260508030133 6 55 0.0 0.0 0.00 0.00 0.00 76 1050.4
20260508025629 6 55 0.0 0.0 0.00 0.00 0.00 79 1050.4
20260508025126 6 56 0.0 0.0 0.00 0.00 0.00 84 1050.3
20260508024622 6 56 0.0 0.0 0.00 0.00 0.00 82 1050.4
20260508024119 6 56 0.0 0.0 0.00 0.00 0.00 81 1050.4
20260508023615 7 56 0.0 0.0 0.00 0.00 0.00 80 1050.2
20260508023113 7 56 0.0 0.0 0.00 0.00 0.00 78 1050.2
20260508022608 7 55 0.0 0.0 0.00 0.00 0.00 73 1050.3
20260508022106 7 56 0.0 0.0 0.00 0.00 0.00 75 1050.2
20260508021601 7 52 0.0 0.0 0.00 0.00 0.00 72 1050.2
20260508021058 7 50 0.0 0.0 0.00 0.00 0.00 73 1050.1
20260508020555 7 50 0.0 0.0 0.00 0.00 0.00 72 1050.2
20260508020053 8 22 0.0 0.0 0.00 0.00 0.00 67 1050.1
20260508015550 8 348 0.0 0.0 0.00 0.00 0.00 62 1050.0
20260508015047 9 348 0.0 0.0 0.00 0.00 0.00 60 1050.0
20260508014543 9 348 0.0 0.0 0.00 0.00 0.00 58 1049.8
20260508014040 9 348 0.0 0.0 0.00 0.00 0.00 60 1049.7
20260508013536 10 326 0.0 0.0 0.00 0.00 0.00 59 1049.6
20260508013033 11 326 0.0 0.0 0.00 0.00 0.00 53 1049.6
20260508012530 11 311 0.0 0.0 0.00 0.00 0.00 50 1049.7
20260508012028 11 300 0.0 0.0 0.00 0.00 0.00 48 1049.5
20260508011526 11 300 0.0 0.0 0.00 0.00 0.00 46 1049.5
20260508011023 11 301 0.0 0.0 0.00 0.00 0.00 45 1049.2
20260508010520 11 301 0.0 0.0 0.00 0.00 0.00 46 1049.6
20260508010017 11 300 0.0 0.0 0.00 0.00 0.00 49 1049.2
20260508005513 12 300 0.0 0.0 0.00 0.00 0.00 47 1049.3
20260508005010 12 301 0.0 0.0 0.00 0.00 0.00 47 1049.0
20260508004506 12 297 0.0 0.0 0.00 0.00 0.00 45 1049.2
20260508004003 12 306 0.0 0.0 0.00 0.00 0.00 45 1049.1
20260508003500 13 303 0.0 0.0 0.00 0.00 0.00 44 1049.0
20260508002957 13 311 0.0 0.0 0.00 0.00 0.00 42 1049.0
20260508002453 13 313 0.0 0.0 0.00 0.00 0.00 43 1049.1
20260508001949 13 307 0.0 0.0 0.00 0.00 0.00 42 1049.0
20260508001446 13 313 0.0 0.0 0.00 0.00 0.00 41 1049.0
20260508000942 14 294 0.0 0.0 0.00 0.00 0.00 41 1048.9